Time,TemperatureF,DewpointF,PressureIn,WindDirection,WindDirectionDegrees,WindSpeedMPH,WindSpeedGustMPH,Humidity,HourlyPrecipIn,Conditions,Clouds,dailyrainin,SoftwareType,DateUTC
2013-04-26 00:01:00,55.2,39.0,30.26,SSE,167,5.0,-999.0,54,-99.99,,,0.00,weatherlink.com 1.10,2013-04-26 05:01:00,
2013-04-26 00:16:00,55.1,39.0,30.25,SSE,153,4.0,-999.0,54,-99.99,,,0.00,weatherlink.com 1.10,2013-04-26 05:16:00,
2013-04-26 00:31:00,54.8,39.0,30.25,SSE,148,4.0,-999.0,55,-99.99,,,0.00,weatherlink.com 1.10,2013-04-26 05:31:00,
2013-04-26 00:46:00,54.6,39.0,30.26,SSW,196,2.0,-999.0,55,-99.99,,,0.00,weatherlink.com 1.10,2013-04-26 05:46:00,
2013-04-26 01:01:00,55.0,37.0,30.26,SSW,194,1.0,-999.0,52,-99.99,,,0.00,weatherlink.com 1.10,2013-04-26 06:01:00,
2013-04-26 01:16:00,55.3,38.0,30.27,South,185,11.0,-999.0,52,-99.99,,,0.00,weatherlink.com 1.10,2013-04-26 06:16:00,
2013-04-26 01:31:00,55.3,38.0,30.28,South,182,5.0,-999.0,53,-99.99,,,0.00,weatherlink.com 1.10,2013-04-26 06:31:00,
2013-04-26 01:46:00,55.0,39.0,30.27,South,180,2.0,-999.0,55,-99.99,,,0.00,weatherlink.com 1.10,2013-04-26 06:46:00,
2013-04-26 02:01:00,54.6,38.0,30.27,South,171,2.0,-999.0,54,-99.99,,,0.00,weatherlink.com 1.10,2013-04-26 07:01:00,
2013-04-26 02:16:00,54.4,38.0,30.26,South,169,7.0,-999.0,54,-99.99,,,0.00,weatherlink.com 1.10,2013-04-26 07:16:00,
2013-04-26 02:31:00,54.3,38.0,30.25,South,178,9.0,-999.0,54,-99.99,,,0.00,weatherlink.com 1.10,2013-04-26 07:31:00,
2013-04-26 02:46:00,54.6,38.0,30.25,South,178,6.0,-999.0,53,-99.99,,,0.00,weatherlink.com 1.10,2013-04-26 07:46:00,
2013-04-26 03:01:00,54.4,38.0,30.25,South,184,0.0,-999.0,54,-99.99,,,0.00,weatherlink.com 1.10,2013-04-26 08:01:00,
2013-04-26 03:16:00,53.9,38.0,30.24,SSE,167,0.0,-999.0,55,-99.99,,,0.00,weatherlink.com 1.10,2013-04-26 08:16:00,
2013-04-26 03:31:00,53.5,38.0,30.24,South,169,0.0,-999.0,56,-99.99,,,0.00,weatherlink.com 1.10,2013-04-26 08:31:00,
2013-04-26 03:46:00,53.3,38.0,30.23,South,171,4.0,-999.0,56,-99.99,,,0.00,weatherlink.com 1.10,2013-04-26 08:46:00,
2013-04-26 04:01:00,53.2,38.0,30.22,South,178,2.0,-999.0,57,-99.99,,,0.00,weatherlink.com 1.10,2013-04-26 09:01:00,
2013-04-26 04:16:00,53.1,38.0,30.23,South,178,7.0,-999.0,58,-99.99,,,0.00,weatherlink.com 1.10,2013-04-26 09:16:00,
2013-04-26 04:31:00,53.3,39.0,30.22,South,180,1.0,-999.0,58,-99.99,,,0.00,weatherlink.com 1.10,2013-04-26 09:31:00,
2013-04-26 04:46:00,53.6,38.0,30.21,SSE,167,6.0,-999.0,57,-99.99,,,0.00,weatherlink.com 1.10,2013-04-26 09:46:00,
2013-04-26 05:01:00,53.6,38.0,30.21,SSE,162,6.0,-999.0,57,-99.99,,,0.00,weatherlink.com 1.10,2013-04-26 10:01:00,
2013-04-26 05:16:00,53.3,39.0,30.22,SSE,151,5.0,-999.0,58,-99.99,,,0.00,weatherlink.com 1.10,2013-04-26 10:16:00,
2013-04-26 05:31:00,52.9,39.0,30.22,SE,142,5.0,-999.0,59,-99.99,,,0.00,weatherlink.com 1.10,2013-04-26 10:31:00,
2013-04-26 05:46:00,52.5,39.0,30.21,SE,146,4.0,-999.0,60,-99.99,,,0.00,weatherlink.com 1.10,2013-04-26 10:46:00,
2013-04-26 06:01:00,52.3,39.0,30.20,SSE,165,4.0,-999.0,60,-99.99,,,0.00,weatherlink.com 1.10,2013-04-26 11:01:00,
2013-04-26 06:16:00,52.7,39.0,30.21,SSE,158,6.0,-999.0,60,-99.99,,,0.00,weatherlink.com 1.10,2013-04-26 11:16:00,
2013-04-26 06:31:00,52.6,39.0,30.21,SSE,162,4.0,-999.0,60,-99.99,,,0.00,weatherlink.com 1.10,2013-04-26 11:31:00,
2013-04-26 06:46:00,52.8,39.0,30.21,South,173,2.0,-999.0,60,-99.99,,,0.00,weatherlink.com 1.10,2013-04-26 11:46:00,
2013-04-26 07:01:00,52.9,39.0,30.23,ESE,119,2.0,-999.0,60,-99.99,,,0.00,weatherlink.com 1.10,2013-04-26 12:01:00,
2013-04-26 07:16:00,52.2,41.0,30.23,ESE,119,0.0,-999.0,65,-99.99,,,0.00,weatherlink.com 1.10,2013-04-26 12:16:00,
2013-04-26 07:31:00,52.4,41.0,30.24,ESE,122,0.0,-999.0,65,-99.99,,,0.00,weatherlink.com 1.10,2013-04-26 12:31:00,
2013-04-26 07:46:00,52.3,41.0,30.24,SE,131,2.0,-999.0,65,-99.99,,,0.00,weatherlink.com 1.10,2013-04-26 12:46:00,
2013-04-26 08:01:00,53.4,41.0,30.25,SE,128,2.0,-999.0,63,-99.99,,,0.00,weatherlink.com 1.10,2013-04-26 13:01:00,
2013-04-26 08:16:00,53.0,42.0,30.25,ESE,123,1.0,-999.0,66,-99.99,,,0.00,weatherlink.com 1.10,2013-04-26 13:16:00,
2013-04-26 08:31:00,52.2,42.0,30.25,ESE,112,7.0,-999.0,69,-99.99,,,0.00,weatherlink.com 1.10,2013-04-26 13:31:00,
2013-04-26 08:46:00,52.2,43.0,30.25,East,97,1.0,-999.0,72,-99.99,,,0.00,weatherlink.com 1.10,2013-04-26 13:46:00,
2013-04-26 09:01:00,51.8,44.0,30.24,East,99,13.0,-999.0,74,-99.99,,,0.00,weatherlink.com 1.10,2013-04-26 14:01:00,
2013-04-26 09:16:00,52.5,45.0,30.24,East,94,4.0,-999.0,75,-99.99,,,0.00,weatherlink.com 1.10,2013-04-26 14:16:00,
2013-04-26 09:31:00,52.8,44.0,30.23,East,97,12.0,-999.0,72,-99.99,,,0.00,weatherlink.com 1.10,2013-04-26 14:31:00,
2013-04-26 09:46:00,52.7,44.0,30.22,East,94,7.0,-999.0,73,-99.99,,,0.00,weatherlink.com 1.10,2013-04-26 14:46:00,
2013-04-26 10:01:00,52.9,44.0,30.21,ESE,108,6.0,-999.0,73,-99.99,,,0.00,weatherlink.com 1.10,2013-04-26 15:01:00,
2013-04-26 10:16:00,52.2,44.0,30.21,East,88,8.0,-999.0,73,-99.99,,,0.00,weatherlink.com 1.10,2013-04-26 15:16:00,
2013-04-26 10:31:00,51.9,44.0,30.22,ESE,105,9.0,-999.0,74,-99.99,,,0.00,weatherlink.com 1.10,2013-04-26 15:31:00,
2013-04-26 10:46:00,52.1,44.0,30.23,ESE,115,8.0,-999.0,73,-99.99,,,0.00,weatherlink.com 1.10,2013-04-26 15:46:00,
2013-04-26 11:01:00,51.7,44.0,30.25,ENE,76,0.0,-999.0,74,-99.99,,,0.00,weatherlink.com 1.10,2013-04-26 16:01:00,
2013-04-26 11:16:00,49.6,42.0,30.27,NE,52,8.0,-999.0,74,-99.99,,,0.02,weatherlink.com 1.10,2013-04-26 16:16:00,
2013-04-26 11:31:00,48.8,41.0,30.27,ENE,71,11.0,-999.0,74,-99.99,,,0.04,weatherlink.com 1.10,2013-04-26 16:31:00,
2013-04-26 11:46:00,48.2,40.0,30.29,ENE,61,7.0,-999.0,74,-99.99,,,0.06,weatherlink.com 1.10,2013-04-26 16:46:00,
2013-04-26 12:01:00,47.7,39.0,30.27,ENE,78,14.0,-999.0,72,-99.99,,,0.06,weatherlink.com 1.10,2013-04-26 17:01:00,
2013-04-26 12:16:00,47.9,39.0,30.24,ENE,72,10.0,-999.0,72,-99.99,,,0.06,weatherlink.com 1.10,2013-04-26 17:16:00,
2013-04-26 12:31:00,47.8,39.0,30.25,ENE,74,13.0,-999.0,72,-99.99,,,0.06,weatherlink.com 1.10,2013-04-26 17:31:00,
2013-04-26 12:46:00,48.0,40.0,30.26,ENE,73,12.0,-999.0,73,-99.99,,,0.06,weatherlink.com 1.10,2013-04-26 17:46:00,
2013-04-26 13:01:00,48.0,40.0,30.25,ENE,70,11.0,-999.0,73,-99.99,,,0.06,weatherlink.com 1.10,2013-04-26 18:01:00,
2013-04-26 13:16:00,47.9,39.0,30.25,East,88,15.0,-999.0,71,-99.99,,,0.06,weatherlink.com 1.10,2013-04-26 18:16:00,
2013-04-26 13:31:00,47.8,39.0,30.23,East,84,13.0,-999.0,71,-99.99,,,0.06,weatherlink.com 1.10,2013-04-26 18:31:00,
2013-04-26 13:46:00,47.6,38.0,30.22,ENE,73,17.0,-999.0,69,-99.99,,,0.06,weatherlink.com 1.10,2013-04-26 18:46:00,
2013-04-26 14:01:00,47.8,38.0,30.24,East,84,11.0,-999.0,69,-99.99,,,0.06,weatherlink.com 1.10,2013-04-26 19:01:00,
2013-04-26 14:16:00,48.0,38.0,30.23,East,86,13.0,-999.0,69,-99.99,,,0.06,weatherlink.com 1.10,2013-04-26 19:16:00,
2013-04-26 14:31:00,47.7,37.0,30.23,East,86,13.0,-999.0,67,-99.99,,,0.07,weatherlink.com 1.10,2013-04-26 19:31:00,
2013-04-26 14:46:00,47.4,37.0,30.22,East,89,11.0,-999.0,67,-99.99,,,0.07,weatherlink.com 1.10,2013-04-26 19:46:00,
2013-04-26 15:01:00,47.0,36.0,30.21,East,90,15.0,-999.0,66,-99.99,,,0.12,weatherlink.com 1.10,2013-04-26 20:01:00,
2013-04-26 15:16:00,47.2,36.0,30.22,East,96,9.0,-999.0,66,-99.99,,,0.12,weatherlink.com 1.10,2013-04-26 20:16:00,
2013-04-26 15:31:00,47.4,36.0,30.21,ENE,75,14.0,-999.0,66,-99.99,,,0.12,weatherlink.com 1.10,2013-04-26 20:31:00,
2013-04-26 15:46:00,47.4,37.0,30.20,ESE,103,14.0,-999.0,67,-99.99,,,0.12,weatherlink.com 1.10,2013-04-26 20:46:00,
2013-04-26 16:01:00,47.6,37.0,30.20,East,91,21.0,-999.0,67,-99.99,,,0.12,weatherlink.com 1.10,2013-04-26 21:01:00,
2013-04-26 16:16:00,47.7,37.0,30.19,East,84,13.0,-999.0,67,-99.99,,,0.12,weatherlink.com 1.10,2013-04-26 21:16:00,
2013-04-26 16:31:00,47.8,38.0,30.19,East,84,15.0,-999.0,68,-99.99,,,0.12,weatherlink.com 1.10,2013-04-26 21:31:00,
2013-04-26 16:46:00,48.0,38.0,30.20,East,82,8.0,-999.0,68,-99.99,,,0.12,weatherlink.com 1.10,2013-04-26 21:46:00,
2013-04-26 17:01:00,48.0,38.0,30.19,East,86,17.0,-999.0,68,-99.99,,,0.13,weatherlink.com 1.10,2013-04-26 22:01:00,
2013-04-26 17:16:00,48.2,38.0,30.18,East,82,13.0,-999.0,68,-99.99,,,0.13,weatherlink.com 1.10,2013-04-26 22:16:00,
2013-04-26 17:31:00,47.9,38.0,30.19,East,87,12.0,-999.0,68,-99.99,,,0.14,weatherlink.com 1.10,2013-04-26 22:31:00,
2013-04-26 17:46:00,47.5,38.0,30.18,ESE,111,9.0,-999.0,69,-99.99,,,0.14,weatherlink.com 1.10,2013-04-26 22:46:00,
2013-04-26 18:01:00,47.5,38.0,30.17,East,92,13.0,-999.0,69,-99.99,,,0.15,weatherlink.com 1.10,2013-04-26 23:01:00,
2013-04-26 18:16:00,47.4,38.0,30.17,East,93,12.0,-999.0,69,-99.99,,,0.15,weatherlink.com 1.10,2013-04-26 23:16:00,
2013-04-26 18:31:00,47.4,38.0,30.17,SE,138,9.0,-999.0,69,-99.99,,,0.15,weatherlink.com 1.10,2013-04-26 23:31:00,
2013-04-26 18:46:00,47.4,38.0,30.18,ESE,103,6.0,-999.0,69,-99.99,,,0.17,weatherlink.com 1.10,2013-04-26 23:46:00,
2013-04-26 19:16:00,47.5,38.0,30.17,SE,125,5.0,-999.0,70,-99.99,,,0.19,weatherlink.com 1.10,2013-04-27 00:16:00,
2013-04-26 19:31:00,47.5,38.0,30.18,SE,136,8.0,-999.0,70,-99.99,,,0.19,weatherlink.com 1.10,2013-04-27 00:31:00,
2013-04-26 19:46:00,47.6,38.0,30.18,ESE,116,7.0,-999.0,70,-99.99,,,0.20,weatherlink.com 1.10,2013-04-27 00:46:00,
2013-04-26 20:01:00,47.7,38.0,30.17,SE,126,6.0,-999.0,70,-99.99,,,0.20,weatherlink.com 1.10,2013-04-27 01:01:00,
2013-04-26 20:16:00,47.7,38.0,30.16,ESE,111,6.0,-999.0,70,-99.99,,,0.20,weatherlink.com 1.10,2013-04-27 01:16:00,
2013-04-26 20:31:00,47.9,39.0,30.16,ESE,115,9.0,-999.0,70,-99.99,,,0.20,weatherlink.com 1.10,2013-04-27 01:31:00,
2013-04-26 20:46:00,48.2,39.0,30.16,East,92,6.0,-999.0,70,-99.99,,,0.20,weatherlink.com 1.10,2013-04-27 01:46:00,
2013-04-26 21:01:00,48.5,39.0,30.16,ESE,105,6.0,-999.0,70,-99.99,,,0.20,weatherlink.com 1.10,2013-04-27 02:01:00,
2013-04-26 21:16:00,48.7,39.0,30.16,East,88,13.0,-999.0,70,-99.99,,,0.20,weatherlink.com 1.10,2013-04-27 02:16:00,
2013-04-26 21:31:00,48.8,40.0,30.17,ENE,72,13.0,-999.0,71,-99.99,,,0.20,weatherlink.com 1.10,2013-04-27 02:31:00,
2013-04-26 21:46:00,48.9,40.0,30.16,East,95,12.0,-999.0,71,-99.99,,,0.20,weatherlink.com 1.10,2013-04-27 02:46:00,
2013-04-26 22:01:00,49.0,40.0,30.17,East,95,16.0,-999.0,71,-99.99,,,0.20,weatherlink.com 1.10,2013-04-27 03:01:00,
2013-04-26 22:16:00,49.1,40.0,30.17,East,82,13.0,-999.0,71,-99.99,,,0.21,weatherlink.com 1.10,2013-04-27 03:16:00,
2013-04-26 22:31:00,49.2,40.0,30.17,ENE,71,13.0,-999.0,71,-99.99,,,0.22,weatherlink.com 1.10,2013-04-27 03:31:00,
2013-04-26 22:46:00,49.2,40.0,30.18,East,85,10.0,-999.0,71,-99.99,,,0.22,weatherlink.com 1.10,2013-04-27 03:46:00,
2013-04-26 23:01:00,49.2,40.0,30.18,East,79,12.0,-999.0,71,-99.99,,,0.22,weatherlink.com 1.10,2013-04-27 04:01:00,
2013-04-26 23:16:00,49.1,40.0,30.17,ENE,76,8.0,-999.0,71,-99.99,,,0.22,weatherlink.com 1.10,2013-04-27 04:16:00,
2013-04-26 23:31:00,49.0,40.0,30.18,East,84,13.0,-999.0,71,-99.99,,,0.23,weatherlink.com 1.10,2013-04-27 04:31:00,
2013-04-26 23:46:00,48.8,40.0,30.18,East,92,14.0,-999.0,71,-99.99,,,0.27,weatherlink.com 1.10,2013-04-27 04:46:00,